Location: Saluda
(35.2377°N, 82.3468°W)
Time: 15:40:54
(UTC+00:00)

SR - Pass Details

Date: 10 October 2022
Orbit: 577 x 875 km, 66.7° (Epoch: 28 November)

Event Time Altitude Azimuth Distance (km) Brightness Sun altitude
Rises 11:13:45 0° 309° (NW) 3,180 ? -4.4°
Reaches altitude 10° 11:17:52 10° 278° (W) 2,168 ? -3.6°
Maximum altitude 11:19:28 12° 258° (WSW) 2,030 ? -3.3°
Drops below altitude 10° 11:21:03 10° 239° (WSW) 2,100 ? -2.9°
Sets 11:24:51 0° 206° (SSW) 2,931 ? -2.2°
